Home > Weather > Herzogenrath > Past weeks

Flag for Germany Past Weather in Herzogenrath, North Rhine-Westphalia, Germany — Yesterday and Last 2 Weeks

Now
61 °F

Mostly cloudy.


Feels Like: 61 °F
Forecast: 58 / 71 °F
Wind: 7 mph from Southwest

Location: Geilenkirchen Airport

Current Time: Jul 29, 2016 at 4:19:28 AM

Latest Report: Jul 29, 2016 at 3:50 AM


Visibility: N/A

Pressure: 29.95 "Hg

Humidity: 88%

Dew Point: 57 °F

Location of HerzogenrathLocation

Past Weather in Herzogenrath — Graph

°F

Herzogenrath Temperature Yesterday

Maximum temperature yesterday: 75 °F (at 4:50 PM)
Minimum temperature yesterday: 63 °F (at 4:50 AM)
Average temperature yesterday: 67 °F

High & Low Weather Summary for the Past Weeks

 TemperatureHumidityPressure
High95 °F (Jul 20, 1:50 PM)100% (Jul 18, 5:50 AM)30.33 "Hg (Jul 18, 5:50 AM)
Low50 °F (Jul 14, 3:50 AM)28% (Jul 20, 2:50 PM)29.86 "Hg (Jul 20, 3:50 PM)
Average70 °F70%30.08 "Hg
* Reported Jul 14 2:50 AM — Jul 29 2:50 AM, Herzogenrath, Weather by CustomWeather, © 2016

Note: Actual official high and low records may vary slightly from our data, if they occured in-between our weather recording intervals... More about our weather records

Advertising

Herzogenrath Weather History for the Previous 24 Hours

Scroll right to see more
 ConditionsComfort  
Time TempWeatherWind HumidityBarometerVisibility
2:50 AM
Fri, Jul 29
61 °FDrizzle. Mostly cloudy.7 mph88%29.95 "HgN/A
1:50 AM63 °FLight rain. Passing clouds.12 mph83%29.95 "HgN/A
12:50 AM64 °FClear.6 mph73%29.95 "Hg10 mi
11:50 PM
Thu, Jul 28
66 °FClear.2 mph73%29.95 "Hg10 mi
10:50 PM66 °FClear.2 mph73%29.95 "Hg10 mi
9:50 PM68 °FSunny.5 mph69%29.95 "Hg10 mi
8:50 PM70 °FPassing clouds.10 mph60%29.95 "HgN/A
7:50 PM73 °FPassing clouds.12 mph57%29.92 "HgN/A
6:50 PM73 °FBroken clouds.15 mph53%29.95 "HgN/A
5:50 PM75 °FPartly sunny.14 mph50%29.95 "HgN/A
4:50 PM75 °FPartly sunny.13 mph57%29.95 "HgN/A
3:50 PM73 °FPartly sunny.12 mph65%29.95 "HgN/A
2:50 PM72 °FPartly sunny.12 mph69%29.98 "HgN/A
1:50 PM70 °FBroken clouds.9 mph73%29.98 "HgN/A
12:50 PM68 °FPartly sunny.7 mph78%29.98 "HgN/A
11:50 AM66 °FBroken clouds.7 mph88%30.01 "HgN/A
10:50 AM66 °FBroken clouds.7 mph88%30.01 "HgN/A
9:50 AM64 °FDrizzle. Broken clouds.6 mph94%30.01 "Hg3 mi
8:50 AM63 °FDrizzle. Partly sunny.5 mph94%29.98 "Hg2 mi
7:50 AM63 °FBroken clouds.3 mph94%30.01 "Hg6 mi
6:50 AM63 °FDrizzle. Mostly cloudy.5 mph94%30.01 "Hg3 mi
5:50 AM63 °FPassing clouds.1 mph94%30.01 "Hg6 mi
4:50 AM63 °FLight rain. Passing clouds.2 mph94%30.01 "Hg6 mi
Weather by CustomWeather, © 2016

See weather overviewHow to use our weather pages